Temperature
20 20 19 19 19 19 21 22 23 23 22 23 23 22 21 21 20 20 20 20 20 20 20 19 19 19 19 19 20 20 20 19 19 19 19 19 19 19 19 19 19 19 19 19 18 18 18 18 19
20 20 19 19 19 20 21 22 23 23 23 23 23 22 21 20 20 20 20 20 20 20 20 20 19 20 20 20 20 20 20 19 19 19 19 19 19 19 19 19 19 19 19 19 18 18 18 18 18
20 20 20 19 20 21 22 23 23 23 24 23 23 22 21 20 20 21 21 20 20 20 20 20 20 20 20 20 20 20 20 20 19 19 19 19 19 19 19 19 19 19 19 19 18 18 18 18 18
20 20 20 20 22 22 23 23 23 23 24 23 22 21 21 21 21 21 21 20 20 20 20 20 20 20 20 20 20 19 19 20 20 19 19 19 19 19 19 19 19 19 19 19 18 18 18 18 18
21 20 20 21 22 23 23 23 24 23 23 23 22 21 20 20 21 21 21 21 20 20 20 20 20 20 20 20 20 20 19 19 19 19 19 19 19 19 19 19 19 19 19 19 19 18 18 18 18
21 20 20 21 23 23 24 24 24 23 23 22 22 20 20 21 21 21 21 21 20 20 20 20 20 20 20 20 20 20 19 19 19 19 19 19 19 19 19 19 19 19 19 18 18 18 18 18 18
21 20 21 22 22 23 24 24 23 23 23 22 22 20 20 20 21 21 21 20 20 20 20 20 20 20 20 20 20 20 19 19 19 19 19 19 19 19 19 19 19 19 19 19 19 18 18 18 18
22 20 22 22 23 24 24 25 24 24 23 23 23 21 20 21 21 21 20 20 20 20 20 20 20 20 20 20 19 19 19 19 19 19 19 19 19 19 19 19 19 19 18 18 18 18 18 18 18
22 20 21 23 23 24 24 24 24 24 23 23 23 22 22 21 21 21 20 20 20 20 20 20 20 20 20 19 19 19 19 19 19 19 19 19 19 19 19 19 19 18 18 18 18 18 18 18 18
22 21 23 24 24 24 25 24 24 24 23 22 22 22 22 21 21 20 20 20 20 20 20 20 20 20 20 19 19 19 19 19 19 19 19 19 19 19 19 19 18 18 18 18 18 18 18 18 18
22 22 23 24 25 25 25 25 24 23 22 22 22 22 21 21 21 21 21 21 21 20 20 20 20 20 20 20 19 19 19 19 19 19 19 19 19 19 19 19 19 18 18 18 18 18 18 18 18
23 24 25 25 26 25 25 24 24 24 24 24 24 23 22 21 21 21 21 21 21 21 21 20 20 20 20 20 20 19 19 19 19 19 19 19 19 19 19 19 19 18 18 18 18 18 18 18 18
24 25 26 26 26 25 25 24 24 23 24 24 23 22 22 22 21 21 21 21 21 21 21 21 20 20 20 20 19 19 19 19 19 19 19 19 19 19 19 19 19 18 18 18 18 18 18 18 18
25 25 25 26 26 25 24 24 24 23 24 23 23 22 22 22 22 21 21 21 21 21 21 21 21 20 20 20 20 19 19 19 19 19 19 19 19 19 19 19 18 18 18 18 18 18 18 18 18
26 25 25 25 26 25 25 24 23 24 23 23 22 22 22 22 22 22 22 22 21 21 21 21 21 20 20 20 20 20 19 19 19 19 19 19 19 19 19 18 18 18 18 18 18 18 18 18 18
25 24 24 25 25 25 25 23 23 23 23 22 22 22 21 22 22 22 22 22 22 21 21 21 20 20 20 20 20 20 19 19 19 19 19 19 19 19 19 18 18 18 18 18 18 18 18 18 18
23 23 24 25 25 25 24 23 23 23 23 22 22 22 21 21 21 22 22 22 22 21 21 21 21 21 20 20 20 20 19 19 19 19 19 19 19 18 18 18 18 18 18 18 18 18 18 18 18
24 23 24 24 24 24 23 23 22 23 22 22 22 22 21 21 22 22 22 22 22 21 21 21 21 21 20 20 20 20 19 19 19 19 19 19 19 18 18 18 18 18 18 18 18 18 18 18 18
24 24 24 24 25 24 23 22 22 22 22 22 22 22 22 22 22 22 22 22 22 21 21 21 21 21 20 20 20 20 19 19 19 19 18 18 18 18 18 18 18 18 18 18 18 18 18 18 18
24 24 24 24 24 24 23 22 22 22 22 22 22 22 22 22 22 22 22 22 22 21 21 21 21 21 20 20 20 20 19 19 19 19 18 18 18 18 18 18 18 18 18 18 18 18 18 18 18
24 24 24 24 24 23 23 22 22 22 22 22 23 23 22 22 22 22 22 22 22 22 22 21 21 21 20 20 20 20 19 19 19 19 19 18 18 18 18 18 18 18 18 18 18 18 18 18 18
24 25 25 25 23 22 23 22 22 21 21 21 22 22 22 23 23 23 23 22 22 22 22 21 21 21 20 20 20 20 20 19 19 19 18 18 18 18 18 18 18 18 18 18 18 18 18 17 17
25 25 24 24 23 22 22 22 22 21 21 22 22 22 23 23 23 23 23 23 22 22 22 22 21 21 20 20 20 20 20 19 19 19 18 18 18 18 18 18 18 18 18 18 18 18 18 17 17
25 24 22 20 20 22 22 22 22 20 21 22 22 23 23 23 23 23 23 23 22 22 22 21 21 21 20 20 20 20 19 19 19 19 18 18 18 18 18 18 18 18 18 18 18 17 17 17 17
24 22 22 22 20 21 21 21 21 22 22 22 22 23 23 23 23 23 22 22 22 22 22 21 21 21 20 20 20 19 19 19 19 19 18 18 18 18 18 18 18 18 18 17 17 17 17 17 17
23 22 22 22 22 21 21 21 21 22 22 23 23 23 23 23 23 22 22 22 22 22 22 21 21 21 20 20 20 19 19 19 19 18 18 18 18 18 18 18 18 17 17 17 17 17 17 17 16
23 21 21 20 21 21 21 21 21 22 21 21 22 22 22 23 23 22 22 22 22 22 21 21 21 20 20 20 19 19 19 19 18 18 18 18 18 18 18 17 17 17 17 17 17 17 16 16 16
23 20 18 19 20 21 22 21 21 22 21 21 20 21 23 23 23 22 22 22 22 21 21 21 21 20 20 19 19 19 19 19 18 18 18 18 18 18 17 17 17 17 17 17 16 16 16 16 16
22 21 18 17 19 20 21 21 22 21 21 21 20 22 22 23 23 22 22 21 21 21 21 21 20 20 20 19 19 19 19 19 18 18 18 18 17 17 17 17 17 16 16 16 16 16 16 16 15
23 21 19 21 20 18 19 21 22 21 20 20 21 21 22 23 23 22 21 21 21 21 20 20 20 20 19 19 19 19 18 18 18 18 17 17 17 17 17 17 16 16 16 16 16 16 15 15 15
Wind_Speed
9 7 3 1 2 3 2 3 1 2 2 2 3 5 5 4 2 1 1 5 6 5 6 8 8 7 7 8 9 10 11 11 10 10 11 12 12 12 12 12 12 12 11 10 10 10 10 10 10
7 5 2 1 3 3 3 2 2 2 3 4 4 5 5 4 3 4 3 4 6 6 7 7 8 8 8 8 9 9 10 10 10 10 10 11 11 11 11 11 11 11 10 10 10 9 9 9 9
7 3 1 2 2 2 1 1 2 3 3 2 4 5 4 3 3 3 4 7 6 5 6 7 9 8 8 8 8 9 9 9 9 9 9 9 10 10 10 10 10 10 9 9 9 8 8 8 8
3 1 1 3 2 2 3 2 3 3 3 5 4 5 4 3 3 4 7 7 7 5 6 6 8 8 8 8 8 8 8 9 9 9 8 9 9 9 9 9 9 8 8 8 7 7 7 7 7
1 2 3 3 2 2 1 2 2 3 3 4 4 4 3 4 6 8 8 7 7 5 5 6 8 8 8 7 8 8 8 8 8 8 7 8 8 8 8 8 7 7 7 7 6 6 5 6 6
2 3 3 2 3 2 1 1 3 4 4 3 4 4 2 2 6 7 7 6 6 6 4 5 7 7 7 7 7 7 8 8 8 7 6 7 7 7 7 7 7 6 5 5 5 5 5 6 7
2 3 1 0 1 1 1 2 3 4 4 3 4 5 1 2 4 6 6 6 5 5 4 3 5 6 6 6 6 7 7 7 7 6 6 5 5 6 5 6 6 5 5 5 5 5 5 5 6
3 3 2 1 0 2 1 2 3 4 3 4 4 6 4 5 7 7 6 5 5 4 4 3 3 3 4 4 5 5 6 6 6 5 5 4 3 3 4 4 4 5 5 5 5 4 4 5 6
2 3 1 3 3 3 1 2 2 3 5 3 3 4 5 11 10 9 6 4 4 3 2 2 2 3 3 3 4 4 4 4 5 4 3 2 1 1 1 2 4 5 5 4 4 4 4 4 5
3 2 4 4 5 3 2 2 3 4 4 3 5 7 10 11 10 9 8 7 5 4 3 2 2 2 3 3 3 2 3 3 3 2 2 1 1 1 0 1 2 3 3 3 2 2 2 2 2
3 4 3 2 3 3 2 1 2 6 3 5 9 12 13 11 9 8 7 6 6 5 4 3 2 2 3 2 2 2 2 2 1 1 1 1 1 1 1 1 1 2 1 0 1 1 1 1 1
3 4 3 2 2 3 2 2 2 2 4 6 12 15 14 12 10 9 8 7 5 4 4 3 3 3 2 2 1 2 1 1 1 1 2 1 0 1 1 1 1 2 1 1 1 1 0 1 1
2 2 1 0 2 3 4 3 2 0 3 9 12 12 12 11 10 8 6 5 5 5 4 4 4 4 3 2 2 2 1 2 2 2 2 2 1 0 1 1 1 1 1 1 0 1 1 0 0
2 1 1 1 2 3 5 2 3 2 7 11 12 11 10 10 9 7 6 6 6 6 5 4 4 4 3 2 2 1 2 2 2 2 2 2 2 1 0 1 1 1 1 1 1 0 0 0 0
1 3 4 2 1 2 5 2 1 5 8 9 10 9 9 8 8 8 9 8 7 6 5 5 5 4 4 3 2 2 2 2 1 2 2 2 2 1 1 1 1 1 1 2 1 1 1 1 0
3 4 1 3 0 2 5 2 3 6 9 8 8 8 8 7 8 8 8 7 6 5 5 5 5 5 4 3 3 2 2 2 2 2 1 2 2 2 2 1 0 1 2 1 1 1 1 1 1
4 1 2 3 0 2 3 3 2 5 8 8 8 8 7 6 6 6 7 7 7 6 6 5 4 5 5 4 3 2 2 1 1 1 1 1 2 2 2 1 1 1 2 1 0 1 1 0 1
3 2 2 3 2 2 2 3 2 5 8 8 8 7 7 8 8 6 6 6 6 6 5 5 5 4 4 3 2 1 1 1 1 1 1 2 2 2 3 2 1 2 1 1 1 1 1 0 0
3 3 3 5 2 3 3 3 3 4 5 7 7 8 9 9 7 5 6 6 6 5 6 6 6 4 4 2 2 2 1 0 1 1 1 2 2 2 2 1 1 1 1 1 1 1 1 2 1
3 2 2 3 1 3 1 3 3 4 7 7 9 10 10 8 5 6 6 7 7 7 7 6 6 5 4 3 2 2 2 1 1 0 1 1 2 2 2 2 1 1 1 1 1 1 1 1 2
2 4 4 2 2 3 3 4 3 3 4 5 6 7 8 10 9 8 8 8 8 8 8 8 7 5 4 3 3 3 3 2 1 1 1 1 1 1 2 2 1 1 1 0 1 0 1 0 1
4 5 5 3 3 1 1 3 6 4 4 6 7 7 8 9 10 9 9 8 8 8 7 7 6 6 5 5 4 4 3 2 2 1 0 1 1 1 1 2 1 1 0 0 1 1 1 1 0
5 1 3 2 4 2 2 1 7 2 5 8 9 8 9 9 10 10 10 9 8 7 8 8 7 6 5 5 6 5 3 2 1 1 1 1 1 1 1 1 1 1 0 0 1 1 1 1 1
3 6 6 6 5 1 2 3 6 4 6 6 6 7 8 8 8 8 7 7 6 6 6 7 8 6 6 6 5 5 5 4 3 2 1 0 0 1 1 0 0 0 0 1 1 1 1 0 0
5 6 4 4 4 5 2 2 7 7 6 6 6 6 6 7 7 7 7 8 7 8 8 7 8 7 6 6 5 5 5 5 5 3 2 2 0 1 1 1 0 1 1 1 0 0 0 0 0
4 8 7 5 5 5 1 4 7 6 5 3 4 4 4 5 6 7 8 8 8 8 8 8 8 7 6 6 5 4 4 4 3 3 3 3 2 2 1 1 1 1 1 1 0 0 1 0 1
6 4 6 7 3 1 4 6 7 3 4 3 2 1 3 5 5 6 6 7 7 7 8 9 8 7 6 6 6 5 5 4 3 3 2 2 2 2 1 1 1 1 1 1 1 1 1 1 1
5 8 6 6 5 3 4 4 5 6 5 4 2 2 2 2 4 5 6 7 7 6 6 6 7 7 6 5 5 5 4 4 4 3 3 2 2 1 1 1 1 2 2 1 1 1 1 1 1
3 5 6 5 5 6 3 6 5 7 5 4 4 2 2 3 5 5 6 6 6 6 6 6 6 6 5 6 5 4 4 4 4 3 3 3 2 2 2 2 2 2 2 2 2 2 2 2 2
4 6 7 5 4 4 4 6 4 3 3 3 3 2 1 2 3 5 5 6 6 6 6 5 6 6 6 5 5 4 4 3 3 4 4 3 3 3 3 2 2 3 3 2 3 3 2 2 2
Wind_Direction
157 148 144 144 56 46 359 327 333 30 40 43 87 90 106 103 127 158 105 130 129 138 152 154 148 141 133 126 126 127 126 126 126 129 132 134 134 138 141 143 145 146 149 149 146 146 146 143 143
149 152 173 73 71 49 337 325 45 52 118 127 83 73 73 66 65 102 121 140 135 140 142 149 143 139 134 131 131 131 129 127 126 128 130 133 136 140 144 146 146 146 149 149 149 147 146 148 150
163 181 105 69 76 149 235 297 101 82 90 80 70 60 74 90 115 139 159 142 133 137 141 154 142 140 139 136 134 133 132 130 130 130 132 134 137 142 145 148 146 148 150 153 154 153 155 157 158
163 126 50 58 35 247 199 192 140 116 54 50 85 69 57 56 134 141 136 135 134 141 143 156 146 143 139 140 140 137 135 134 133 133 135 139 142 142 142 144 148 152 154 152 153 157 164 169 169
101 71 45 25 342 320 168 176 157 104 65 63 86 83 38 11 95 119 128 129 135 142 141 157 150 142 139 141 142 141 139 136 135 133 134 140 143 146 147 150 151 155 159 158 158 163 172 182 182
57 57 53 10 342 354 63 155 113 94 92 90 90 88 31 68 108 128 127 120 125 134 133 151 153 147 146 148 147 144 142 140 139 137 135 139 143 147 154 159 160 165 169 171 172 175 184 191 189
93 75 45 292 328 348 196 132 123 116 112 123 120 100 69 113 125 124 115 109 110 116 119 128 147 153 153 152 149 148 149 147 145 141 140 140 147 150 157 163 169 172 180 191 197 201 199 200 195
142 94 17 320 204 269 197 119 124 124 123 122 118 130 172 172 132 116 105 101 107 106 110 112 117 133 149 155 149 149 153 156 150 145 142 139 142 159 172 172 177 182 190 204 213 223 215 209 207
134 76 246 222 193 228 178 109 103 92 112 111 111 139 151 138 131 122 117 110 122 129 113 117 121 122 139 148 158 157 156 156 156 155 154 146 114 96 178 184 193 192 197 206 214 221 223 214 211
121 135 232 216 191 191 193 141 136 106 107 101 87 97 121 136 141 145 152 159 165 169 164 144 147 147 145 151 139 139 144 136 139 132 122 92 66 42 8 204 218 220 213 210 207 199 202 203 206
167 201 243 238 196 172 166 112 110 129 164 186 158 146 146 150 154 162 170 174 179 177 177 173 167 153 145 135 125 126 135 125 127 122 118 96 68 27 24 26 346 322 317 244 150 178 225 203 195
184 254 236 246 149 137 146 117 96 157 210 175 157 152 155 162 171 178 181 183 174 168 180 173 166 156 154 150 140 133 133 146 153 181 182 149 76 24 31 36 357 8 7 25 36 103 286 235 231
192 280 295 156 77 105 99 98 120 220 138 128 137 148 160 170 180 186 183 177 171 178 184 177 167 165 163 155 168 165 176 189 198 201 204 177 162 129 35 13 11 24 25 39 19 22 36 346 355
243 322 335 25 92 112 106 85 99 170 132 135 146 160 170 178 180 176 179 184 188 190 190 177 166 162 151 157 172 180 191 202 201 214 221 200 185 163 83 23 21 8 15 32 52 47 84 108 117
51 58 19 21 72 127 102 40 208 165 140 148 160 168 175 184 179 184 190 193 195 193 189 182 172 152 154 168 183 180 187 187 198 221 216 201 195 178 139 55 12 6 32 46 43 31 54 54 76
46 58 10 287 63 117 114 241 252 155 150 163 172 177 183 192 196 195 190 192 191 184 181 185 176 156 164 176 186 174 170 169 200 217 203 194 193 173 144 117 28 42 63 60 57 39 29 21 30
36 24 274 297 275 123 144 229 236 160 162 172 181 187 193 201 212 206 194 189 185 182 177 176 171 160 171 177 169 156 139 140 173 178 158 174 176 167 148 136 92 88 81 57 13 77 101 7 344
254 258 275 275 272 122 178 226 204 173 172 183 184 191 201 208 216 209 198 186 179 176 171 172 171 167 162 151 128 105 87 88 104 119 138 159 167 160 134 110 79 78 70 34 39 74 68 64 321
191 187 248 257 223 143 207 237 233 194 189 198 196 197 209 217 216 197 192 183 172 171 174 176 173 173 158 151 152 150 173 174 80 98 158 167 159 146 125 100 90 88 89 36 32 77 46 33 44
173 194 257 299 86 137 167 288 262 212 215 209 205 209 214 213 201 197 192 186 183 185 185 181 181 174 174 175 160 147 143 139 142 59 79 150 156 152 144 127 132 118 86 35 28 64 71 33 56
244 199 216 215 30 56 78 328 283 256 236 236 222 212 214 208 203 204 200 195 186 190 189 189 182 171 170 154 121 103 86 62 42 29 20 358 143 129 123 137 137 129 137 13 358 78 136 109 39
265 234 199 172 115 308 100 277 287 270 264 248 242 222 215 211 205 203 201 198 194 195 186 176 169 161 161 151 148 151 158 177 213 208 231 6 40 77 110 131 133 133 116 351 334 69 151 149 156
226 141 130 132 130 72 24 172 286 313 266 256 245 231 219 211 205 203 201 197 194 184 174 168 155 152 156 157 162 160 165 179 150 108 85 42 21 27 46 121 140 149 218 324 6 32 68 176 195
154 71 60 53 73 17 256 179 281 250 236 257 250 236 223 211 205 199 190 178 177 172 164 157 149 151 158 160 164 166 166 160 141 137 150 172 342 355 2 66 122 185 246 284 304 357 24 16 252
96 91 36 2 11 257 252 190 253 258 248 239 242 237 220 203 194 186 178 178 179 176 170 159 154 158 161 161 170 174 176 170 169 173 178 178 206 269 290 287 262 263 264 273 300 20 330 294 284
169 145 159 196 220 268 301 229 258 275 284 271 248 236 214 200 191 186 182 181 182 179 168 162 163 164 164 167 175 174 171 175 178 178 180 188 208 226 248 247 255 280 292 300 284 237 255 264 251
140 158 160 137 146 247 280 287 304 312 326 328 329 261 217 204 188 175 166 169 173 174 172 169 169 172 176 179 174 169 170 172 177 176 176 192 211 217 220 230 262 279 281 267 218 215 245 220 242
131 139 104 122 149 233 284 280 266 279 284 294 292 268 250 198 177 166 165 166 168 168 164 158 164 173 174 177 184 182 176 173 173 166 178 194 206 216 211 232 251 270 275 257 219 233 242 209 249
103 99 105 116 148 162 231 268 238 233 240 250 264 275 258 186 178 171 165 161 155 151 154 155 159 165 175 179 177 173 174 169 171 185 198 200 207 205 210 220 231 246 257 252 221 229 225 227 260
158 160 147 154 200 172 179 259 286 234 242 234 255 279 278 175 163 156 154 150 150 158 158 160 159 166 180 180 172 177 175 169 183 202 209 205 210 216 217 219 226 238 246 242 227 235 230 228 249
Height
1495 1495 1496 1498 1501 1507 1508 1501 1494 1493 1493 1493 1493 1493 1495 1498 1502 1506 1501 1500 1501 1502 1503 1504 1506 1506 1507 1508 1509 1509 1510 1511 1511 1512 1512 1514 1515 1516 1518 1519 1520 1522 1523 1525 1526 1527 1529 1530 1531
1495 1496 1498 1499 1505 1516 1510 1498 1495 1494 1493 1493 1494 1495 1496 1498 1499 1500 1500 1501 1502 1503 1504 1505 1507 1508 1509 1509 1510 1511 1511 1512 1513 1513 1514 1515 1516 1517 1519 1520 1521 1522 1524 1525 1527 1528 1530 1531 1532
1496 1497 1499 1500 1507 1513 1507 1497 1495 1494 1494 1494 1496 1497 1498 1500 1500 1500 1501 1502 1503 1504 1506 1507 1508 1509 1510 1511 1512 1512 1513 1513 1514 1515 1516 1517 1518 1519 1520 1520 1522 1523 1525 1526 1528 1529 1530 1532 1533
1497 1499 1500 1504 1507 1502 1498 1495 1494 1494 1495 1495 1496 1499 1501 1502 1502 1502 1502 1503 1504 1505 1507 1508 1510 1511 1512 1513 1513 1514 1514 1515 1516 1516 1517 1518 1519 1520 1521 1521 1523 1524 1526 1527 1528 1530 1531 1533 1534
1498 1499 1504 1509 1505 1498 1495 1494 1495 1495 1496 1497 1498 1501 1503 1504 1503 1504 1504 1504 1505 1506 1508 1510 1511 1512 1513 1514 1515 1516 1516 1516 1517 1518 1519 1519 1520 1521 1522 1523 1524 1525 1527 1528 1529 1530 1532 1533 1534
1500 1501 1511 1514 1505 1498 1495 1495 1495 1496 1498 1499 1499 1502 1504 1505 1505 1506 1506 1507 1507 1508 1510 1511 1513 1514 1515 1515 1516 1517 1517 1518 1519 1519 1520 1521 1522 1522 1523 1524 1525 1526 1528 1529 1530 1531 1532 1533 1535
1501 1504 1511 1509 1507 1501 1496 1495 1496 1497 1498 1500 1500 1503 1505 1506 1507 1508 1509 1509 1510 1511 1512 1513 1514 1515 1516 1517 1518 1518 1519 1520 1520 1521 1521 1522 1523 1523 1524 1525 1526 1527 1528 1529 1530 1531 1532 1534 1535
1500 1505 1509 1509 1507 1503 1496 1496 1497 1497 1499 1500 1501 1503 1505 1507 1508 1509 1510 1511 1512 1513 1514 1515 1516 1517 1517 1518 1519 1519 1520 1521 1521 1522 1523 1523 1524 1525 1525 1526 1527 1528 1529 1529 1530 1531 1532 1533 1534
1501 1508 1513 1507 1504 1500 1496 1496 1498 1499 1499 1501 1502 1503 1505 1507 1509 1510 1511 1513 1514 1515 1516 1516 1517 1518 1519 1519 1520 1521 1521 1522 1522 1523 1524 1525 1525 1526 1526 1527 1527 1528 1529 1530 1530 1531 1532 1533 1534
1501 1509 1505 1498 1496 1496 1495 1496 1498 1500 1501 1502 1503 1504 1506 1508 1510 1511 1512 1513 1514 1515 1517 1518 1519 1519 1520 1521 1521 1522 1522 1523 1524 1524 1525 1526 1526 1526 1527 1527 1528 1528 1529 1529 1530 1531 1531 1532 1533
1499 1502 1497 1494 1494 1495 1496 1497 1498 1500 1502 1501 1502 1504 1506 1508 1510 1512 1513 1514 1515 1517 1518 1519 1520 1521 1522 1522 1523 1523 1524 1524 1525 1526 1526 1527 1527 1527 1528 1528 1528 1529 1529 1530 1530 1531 1532 1533 1533
1498 1496 1494 1493 1493 1495 1496 1498 1499 1500 1500 1500 1502 1503 1506 1508 1511 1512 1513 1515 1516 1518 1519 1520 1521 1522 1523 1524 1524 1525 1525 1526 1526 1527 1527 1528 1528 1528 1529 1529 1529 1529 1529 1529 1530 1531 1531 1532 1533
1497 1495 1494 1493 1493 1495 1496 1499 1500 1500 1500 1501 1503 1506 1507 1509 1511 1513 1515 1516 1517 1518 1520 1521 1522 1523 1524 1525 1525 1526 1526 1527 1527 1528 1528 1529 1529 1529 1529 1530 1530 1530 1530 1530 1530 1531 1531 1531 1532
1495 1494 1494 1494 1494 1496 1497 1499 1500 1501 1501 1502 1504 1506 1508 1510 1511 1513 1515 1516 1517 1519 1520 1521 1522 1524 1525 1525 1526 1527 1527 1528 1528 1529 1529 1530 1530 1530 1530 1530 1530 1530 1530 1530 1530 1530 1531 1531 1532
1495 1496 1496 1495 1495 1496 1498 1502 1500 1500 1502 1503 1505 1507 1509 1510 1512 1513 1514 1515 1517 1519 1520 1522 1523 1524 1525 1526 1527 1527 1528 1529 1529 1529 1530 1530 1530 1530 1530 1531 1531 1531 1531 1531 1530 1530 1530 1530 1530
1496 1502 1507 1498 1496 1496 1502 1509 1501 1501 1502 1504 1505 1508 1509 1510 1511 1512 1514 1516 1517 1519 1520 1522 1523 1524 1525 1526 1527 1528 1528 1529 1529 1530 1530 1530 1530 1531 1531 1531 1531 1531 1531 1531 1530 1529 1529 1529 1529
1506 1514 1511 1503 1496 1497 1501 1506 1500 1501 1502 1503 1505 1507 1508 1510 1511 1512 1513 1515 1517 1519 1520 1522 1523 1524 1525 1526 1527 1528 1528 1529 1529 1530 1530 1531 1531 1531 1531 1531 1531 1531 1531 1530 1529 1529 1528 1528 1528
1513 1513 1510 1507 1499 1499 1503 1504 1500 1500 1501 1502 1504 1506 1507 1508 1509 1511 1513 1514 1516 1518 1520 1521 1523 1524 1525 1526 1527 1528 1528 1529 1529 1530 1530 1531 1531 1532 1532 1531 1531 1531 1531 1530 1529 1529 1528 1528 1527
1503 1508 1510 1504 1497 1501 1504 1504 1501 1500 1501 1502 1502 1504 1505 1506 1508 1510 1512 1513 1515 1517 1519 1520 1522 1523 1525 1526 1526 1527 1528 1529 1529 1530 1531 1531 1531 1531 1532 1531 1531 1531 1530 1530 1529 1528 1528 1527 1527
1501 1507 1508 1502 1497 1501 1505 1505 1500 1500 1499 1499 1500 1501 1502 1504 1506 1508 1510 1511 1513 1515 1517 1519 1521 1522 1524 1525 1526 1527 1528 1529 1529 1530 1530 1530 1531 1531 1531 1531 1531 1531 1530 1529 1529 1528 1528 1527 1527
1501 1504 1504 1505 1501 1501 1505 1509 1503 1498 1498 1498 1498 1498 1500 1502 1503 1505 1507 1509 1511 1513 1515 1517 1519 1521 1523 1524 1526 1527 1527 1528 1528 1529 1529 1530 1530 1530 1530 1530 1530 1530 1529 1529 1528 1528 1528 1527 1527
1504 1495 1496 1500 1509 1517 1511 1526 1507 1501 1498 1496 1496 1496 1496 1498 1500 1502 1504 1506 1508 1511 1513 1515 1517 1519 1521 1523 1525 1525 1526 1526 1527 1528 1529 1529 1530 1530 1530 1529 1529 1529 1529 1528 1528 1527 1527 1527 1527
1494 1491 1495 1500 1509 1518 1516 1524 1514 1503 1501 1495 1492 1492 1492 1494 1496 1498 1501 1503 1506 1508 1510 1512 1515 1518 1520 1521 1523 1524 1525 1526 1526 1527 1528 1528 1528 1529 1529 1529 1528 1528 1528 1527 1527 1526 1526 1526 1526
1488 1495 1501 1509 1517 1529 1521 1525 1520 1507 1498 1492 1489 1489 1489 1491 1493 1495 1498 1501 1503 1506 1508 1510 1513 1515 1518 1520 1521 1523 1523 1524 1525 1525 1526 1526 1527 1527 1528 1528 1527 1527 1526 1526 1526 1525 1525 1525 1525
1491 1508 1527 1529 1537 1534 1519 1522 1516 1495 1490 1488 1487 1486 1486 1488 1490 1492 1495 1497 1500 1503 1505 1508 1511 1513 1516 1518 1520 1521 1522 1523 1523 1524 1525 1525 1525 1526 1526 1526 1526 1525 1525 1525 1524 1524 1524 1524 1523
1494 1503 1526 1537 1539 1532 1520 1522 1505 1490 1487 1485 1485 1484 1484 1485 1487 1490 1492 1495 1498 1500 1503 1506 1509 1511 1513 1516 1517 1519 1520 1521 1522 1522 1523 1523 1524 1524 1525 1524 1524 1524 1524 1523 1523 1523 1522 1522 1522
1494 1503 1503 1521 1527 1532 1526 1514 1499 1488 1485 1484 1483 1482 1482 1484 1486 1488 1491 1493 1496 1499 1501 1504 1507 1509 1511 1513 1515 1516 1517 1519 1520 1521 1522 1522 1522 1523 1523 1522 1522 1522 1522 1521 1521 1520 1520 1520 1520
1486 1496 1511 1522 1534 1537 1526 1519 1512 1494 1489 1485 1483 1482 1482 1483 1485 1487 1489 1492 1494 1497 1500 1503 1505 1507 1509 1511 1513 1514 1515 1516 1518 1519 1519 1520 1520 1520 1520 1520 1520 1519 1519 1519 1519 1518 1518 1518 1517
1492 1499 1508 1520 1522 1533 1536 1522 1493 1489 1486 1484 1483 1482 1482 1482 1484 1486 1488 1491 1493 1496 1498 1500 1502 1505 1507 1509 1510 1511 1512 1514 1515 1516 1517 1517 1517 1517 1517 1517 1517 1516 1516 1516 1516 1515 1515 1515 1515
1484 1491 1502 1513 1520 1526 1528 1517 1484 1484 1482 1482 1482 1482 1482 1482 1483 1485 1487 1489 1491 1494 1496 1498 1500 1502 1504 1506 1508 1509 1510 1512 1513 1513 1514 1514 1514 1514 1514 1514 1514 1513 1513 1513 1513 1513 1512 1512 1512